This is the latest recevied weather packets stored in our database for station/object JE6MIQ-13. If no packets are shown the sender has not sent any weather packets the latest 10 day(s).
| Time | Temp. | Humidity | Pressure | Rain* | Wind** | Luminosity | Snow |
|---|---|---|---|---|---|---|---|
| 1777609351 | 22.78° C | 28% | 1009.4 hPa | 0 mm | - | - | - |
| 1777608752 | 21.11° C | 28% | 1009.4 hPa | 0 mm | - | - | - |
| 1777608152 | 22.22° C | 28% | 1009.5 hPa | 0 mm | - | - | - |
| 1777607553 | 22.22° C | 28% | 1009.4 hPa | 0 mm | - | - | - |
| 1777606951 | 21.67° C | 28% | 1009.4 hPa | 0 mm | - | - | - |
| 1777606352 | 21.67° C | 28% | 1009.4 hPa | 0 mm | - | - | - |
| 1777605752 | 21.67° C | 28% | 1009.4 hPa | 0 mm | - | - | - |
| 1777605152 | 21.67° C | 28% | 1009.4 hPa | 0 mm | - | - | - |
| 1777604553 | 22.22° C | 28% | 1009.4 hPa | 0 mm | - | - | - |
| 1777603953 | 21.11° C | 28% | 1009.5 hPa | 0 mm | - | - | - |
| 1777603352 | 22.22° C | 28% | 1009.5 hPa | 0 mm | - | - | - |
| 1777602752 | 22.22° C | 28% | 1009.1 hPa | 0 mm | - | - | - |
| 1777602152 | 22.22° C | 28% | 1009 hPa | 0 mm | - | - | - |
| 1777601553 | 22.22° C | 28% | 1009 hPa | 0 mm | - | - | - |
| 1777600951 | 21.11° C | 28% | 1009.3 hPa | 0 mm | - | - | - |
| 1777600353 | 21.67° C | 28% | 1009.3 hPa | 0 mm | - | - | - |
| 1777599753 | 21.11° C | 28% | 1009.3 hPa | 0 mm | - | - | - |
| 1777599151 | 21.11° C | 28% | 1009.4 hPa | 0 mm | - | - | - |
| 1777598552 | 21.11° C | 28% | 1009.3 hPa | 0 mm | - | - | - |
| 1777597953 | 21.11° C | 28% | 1009.3 hPa | 0 mm | - | - | - |
| 1777597355 | 20.56° C | 28% | 1009.8 hPa | 0 mm | - | - | - |
| 1777596753 | 20° C | 28% | 1009.8 hPa | 0 mm | - | - | - |
| 1777596154 | 20.56° C | 28% | 1009.8 hPa | 0 mm | - | - | - |
| 1777595554 | 20° C | 28% | 1009.7 hPa | 0 mm | - | - | - |
| 1777594954 | 20° C | 28% | 1010 hPa | 0 mm | - | - | - |
* Rain latest hour (hover to see other rain measurements)
** Current wind speed in m/s (hover to see current wind gust speed)